Theta_e
302 303 303 303 304 304 305 306 306 307 307 308 308 308 309 309 309 309 310 310 310 310 309 308 307 306 307 307 307 307 307 307 306 306 306 305 305 305 304 304 303 302 300 300 300 301 302 301 300 299 299 299 300 300 301 301 301 301 300 301 301 302 302 303 303 303 303 304 304 304 305 306 307 308 309 311 311 311 311 312 312 312 312 312 311 311 312 312 312 312 312 313 313 314 314 314 313 313 312 313 313 313 313
302 302 303 303 303 304 304 305 305 306 306 307 307 307 307 307 307 307 308 308 308 309 309 308 307 307 307 308 307 307 306 306 306 306 305 305 304 303 303 302 301 300 299 299 300 301 300 300 299 298 297 298 298 299 300 300 300 299 299 300 300 301 301 302 302 303 303 304 304 303 304 304 305 305 306 307 308 309 309 310 310 310 310 310 310 310 311 311 311 311 312 312 313 314 313 313 312 312 311 311 311 311 312
302 302 302 302 303 303 303 304 304 305 305 305 305 306 306 306 306 306 306 306 306 307 307 306 307 307 307 307 307 306 306 305 305 305 304 304 303 303 302 301 301 300 300 299 300 300 300 299 298 297 297 297 297 298 298 298 298 298 299 299 300 301 301 301 301 302 302 303 303 303 303 303 303 304 304 306 307 307 308 308 308 308 308 308 308 309 309 309 310 310 311 312 313 313 312 312 312 311 310 310 310 310 310
301 301 301 302 302 302 302 303 303 304 304 303 304 304 304 304 305 305 305 306 305 305 305 305 305 306 306 306 306 306 305 305 304 304 303 303 302 302 302 301 300 300 298 298 298 297 299 298 297 296 296 297 297 297 297 297 297 297 298 298 299 300 300 299 298 299 300 301 301 302 302 302 303 303 304 305 305 306 306 306 306 306 307 307 307 307 307 307 308 309 309 310 310 310 309 309 310 310 309 309 309 308 309
300 300 301 301 301 301 302 302 302 303 303 303 303 304 304 304 304 304 304 304 304 303 303 303 303 304 304 304 304 304 304 304 304 304 302 302 301 302 301 300 299 299 298 296 296 298 298 298 297 296 296 296 296 297 297 296 296 296 296 297 298 299 300 299 297 297 298 299 300 301 301 302 302 303 303 303 304 304 305 305 305 305 305 306 306 306 306 306 306 306 307 307 308 308 307 307 307 308 308 308 308 308 308
300 300 300 300 300 300 301 301 301 302 302 302 303 302 302 302 302 302 302 302 302 302 302 302 302 302 302 301 301 302 302 302 302 301 301 301 300 300 300 299 298 298 298 297 296 296 297 297 297 296 296 296 296 295 295 295 295 295 294 295 296 297 298 297 296 295 296 298 299 299 300 300 301 301 302 302 302 303 303 303 304 305 305 304 304 304 304 304 304 305 305 305 306 306 307 307 306 306 307 307 307 307 307
299 299 299 299 299 300 300 300 300 301 301 301 301 300 300 299 299 299 299 299 299 299 300 301 301 301 301 300 300 300 300 300 300 300 300 300 300 299 299 299 299 299 298 298 297 296 297 297 297 296 296 296 295 294 294 293 293 294 294 294 294 295 296 295 294 294 295 297 298 298 298 299 299 300 301 301 302 301 301 302 302 303 303 303 303 303 303 303 303 303 304 304 305 305 306 307 306 306 305 306 305 305 306
298 298 298 298 298 298 299 299 299 300 299 299 298 298 297 297 296 296 296 297 297 298 298 299 300 300 300 300 300 300 300 300 300 300 300 299 299 298 298 298 298 298 298 298 298 298 298 298 297 296 296 295 295 294 293 293 293 293 292 292 293 293 294 294 294 294 294 295 296 297 297 297 298 298 299 299 300 300 299 300 300 301 302 302 302 301 302 302 302 303 303 303 304 304 304 305 305 305 305 304 305 305 305
297 297 297 297 297 297 298 298 299 299 298 297 296 296 295 295 294 294 294 294 295 295 296 297 298 298 299 300 301 301 301 301 301 301 300 300 300 299 298 298 299 299 298 298 297 297 296 296 296 295 294 294 294 294 293 293 292 292 291 291 292 292 293 293 294 293 293 294 295 296 296 296 296 297 297 298 298 298 299 298 298 299 300 300 300 300 300 301 302 302 302 303 304 304 304 304 304 304 304 304 304 304 305
296 296 296 296 296 297 297 297 297 297 296 296 295 294 294 293 293 293 293 293 293 293 293 294 295 296 297 298 299 299 300 301 302 302 302 301 301 300 300 299 299 298 297 296 295 293 293 293 293 292 292 292 293 293 293 292 292 292 291 291 291 291 292 293 293 292 292 292 293 294 295 295 295 296 296 297 297 297 297 297 297 298 298 299 299 299 299 300 301 301 301 302 302 303 303 303 303 304 303 304 304 304 303
296 296 296 296 296 295 296 296 296 296 295 294 293 293 293 293 293 292 292 292 292 292 292 292 293 293 294 295 295 296 298 299 300 300 300 300 300 300 300 299 299 298 296 295 294 293 292 291 291 291 292 292 292 292 292 292 292 292 292 291 291 291 291 292 292 292 291 291 292 292 294 294 294 295 295 296 296 296 296 296 296 297 297 298 298 299 299 299 299 300 300 300 301 302 302 302 302 303 303 304 304 303 303
296 295 295 295 294 294 294 294 294 294 294 293 292 292 292 292 292 291 291 291 291 291 291 291 291 292 292 293 294 294 295 297 298 299 298 298 298 297 298 298 297 297 296 295 294 293 291 291 291 292 292 292 293 292 292 293 293 292 291 291 290 290 290 291 291 291 290 291 291 291 292 293 293 294 294 294 295 295 295 295 295 296 297 297 298 298 298 298 299 299 299 299 300 301 301 301 301 301 302 303 303 303 302
295 294 294 294 294 293 293 293 293 293 293 292 292 292 292 291 291 291 290 290 290 290 290 290 290 291 291 292 292 293 294 295 296 296 297 296 296 296 296 296 295 295 295 294 293 292 291 291 291 292 291 292 292 293 293 292 292 292 291 291 291 290 290 290 290 290 290 290 290 291 291 291 292 292 293 293 293 294 294 294 295 295 295 296 297 297 297 298 298 299 299 299 299 300 300 300 301 301 301 301 301 301 301
294 294 293 293 293 292 292 292 292 292 292 291 291 291 290 290 290 290 289 289 289 289 290 290 290 290 291 291 291 291 292 293 293 294 295 295 295 295 295 295 295 294 293 293 292 292 291 291 291 291 291 291 292 293 293 293 292 292 292 292 291 290 290 289 289 289 289 289 289 290 290 290 291 291 291 292 292 293 293 294 294 294 294 295 296 296 296 297 297 298 298 298 299 299 300 300 300 300 300 300 300 300 300
293 293 292 292 292 292 291 291 290 290 290 290 290 289 289 289 288 288 289 288 289 289 289 289 289 289 289 290 290 290 291 292 292 292 292 293 293 294 294 294 294 294 293 292 291 291 291 291 291 291 291 292 292 292 292 292 291 291 291 291 291 291 290 289 289 288 288 288 289 289 289 289 290 290 290 291 291 292 292 293 293 293 293 294 294 295 295 296 296 297 297 297 298 298 298 298 299 299 299 298 298 299 299
292 292 292 291 291 291 290 290 289 289 289 289 288 289 288 288 288 288 288 288 288 288 289 289 288 288 288 289 289 289 290 290 291 291 291 291 292 292 292 293 293 293 292 291 291 291 291 291 291 291 291 291 291 291 291 290 290 290 290 290 290 290 290 289 288 288 287 288 288 288 289 289 289 289 290 290 290 291 291 291 292 292 292 293 293 294 294 295 295 296 296 296 296 296 297 297 298 298 298 297 297 298 298
291 291 291 291 290 290 289 289 288 288 288 288 288 288 288 288 287 288 287 288 287 288 288 288 287 287 287 288 288 289 289 289 290 290 290 290 290 290 290 290 291 291 291 291 290 290 290 290 290 290 290 290 290 290 290 289 289 289 289 289 289 289 289 289 288 287 287 287 287 287 288 288 288 288 288 289 289 290 290 290 290 291 291 291 292 292 293 293 294 294 295 295 296 296 296 296 297 297 297 297 297 297 296
290 290 290 290 289 289 289 288 287 287 287 287 287 287 287 287 287 287 287 287 287 287 287 287 287 286 287 287 288 288 288 288 289 289 289 289 289 289 289 289 289 289 289 289 289 289 289 289 289 289 289 289 289 289 289 289 288 288 288 288 288 288 288 287 287 287 287 286 286 286 286 287 287 287 287 287 288 289 289 289 289 289 290 290 291 291 291 291 292 293 293 294 295 295 295 295 296 296 296 296 296 296 295
288 288 288 289 289 288 288 287 286 286 286 286 287 287 286 286 286 286 286 286 286 286 286 286 286 286 286 287 287 287 287 287 288 288 288 288 288 288 288 288 288 288 288 288 287 288 288 288 288 288 288 288 288 288 288 287 287 287 287 287 286 286 286 286 286 286 286 286 286 286 286 286 286 286 286 287 287 288 288 288 288 289 289 289 289 290 290 290 291 291 292 293 293 294 294 294 295 295 295 295 296 296 295
286 287 287 288 288 287 286 286 286 285 285 285 286 286 285 285 285 285 286 285 285 286 286 286 285 285 285 285 286 286 286 287 287 287 287 287 288 287 287 287 287 287 287 287 287 287 287 287 287 287 287 287 287 287 286 286 286 286 286 286 286 286 286 285 286 286 285 285 285 285 285 286 286 286 286 286 286 287 287 287 287 288 288 288 288 289 289 289 290 291 291 292 292 292 293 293 294 294 294 295 295 294 295
285 285 286 286 286 286 285 285 284 285 284 284 284 284 284 284 285 285 285 285 285 285 285 285 284 284 284 285 285 285 286 286 286 286 286 286 286 286 286 286 286 286 286 286 286 286 286 286 286 286 286 286 286 286 286 285 285 285 286 286 286 285 285 285 285 285 285 285 284 284 285 285 285 285 285 285 286 286 286 286 287 287 287 287 288 288 288 289 289 290 290 291 291 291 292 292 293 293 293 293 293 293 294
284 284 284 284 284 284 284 283 284 284 283 283 283 283 284 284 284 284 284 284 284 284 284 284 284 283 283 284 284 285 285 285 285 285 285 285 285 285 285 286 285 285 285 285 285 285 285 286 286 286 285 285 285 285 285 285 285 285 285 284 285 285 285 284 284 284 284 284 284 284 284 284 285 285 284 285 285 285 285 286 286 286 287 287 287 287 288 288 289 289 289 290 290 290 291 291 292 292 292 292 292 293 293
283 283 283 283 283 283 283 283 283 283 283 283 283 283 283 283 283 283 284 284 284 283 284 283 283 282 283 283 284 284 284 284 284 284 284 284 284 284 285 285 285 285 285 285 285 285 285 285 285 285 284 284 284 284 284 284 284 284 284 284 284 284 284 284 284 283 283 283 283 283 284 284 284 284 284 284 284 285 285 286 286 286 287 287 287 287 287 288 288 288 288 289 289 290 290 290 291 291 291 291 292 291 291
282 282 282 282 282 282 282 282 281 282 282 282 282 282 283 283 283 283 283 283 283 283 283 283 282 282 282 283 283 283 283 283 283 283 283 283 283 284 284 284 284 284 284 284 284 284 284 284 284 284 284 284 284 284 284 284 284 284 284 284 284 284 284 284 284 284 283 283 283 283 284 284 284 284 284 284 284 285 285 285 285 286 286 286 287 287 287 287 287 288 288 288 288 289 289 290 290 290 290 290 291 291 291
281 281 281 281 281 281 281 281 281 281 281 281 281 282 282 282 282 282 282 282 282 282 282 282 282 282 282 282 282 283 283 283 283 283 283 283 283 283 283 284 284 284 284 284 284 284 284 284 283 283 283 284 284 284 284 284 284 284 284 284 284 284 284 284 284 284 284 283 283 283 284 284 284 284 284 284 284 285 285 285 285 286 286 286 286 287 287 287 287 287 287 288 288 288 289 289 289 290 290 290 290 290 290
281 281 281 281 281 281 280 280 280 280 280 280 281 281 281 282 282 282 282 282 282 281 281 281 281 281 281 281 282 282 282 282 282 282 282 282 282 282 283 283 283 283 283 283 283 283 283 283 283 283 283 283 283 283 283 283 283 283 283 284 284 284 284 284 284 284 284 284 284 283 283 283 284 284 284 284 284 284 285 285 285 285 286 286 286 286 286 287 287 287 287 287 287 288 288 288 289 289 289 289 289 289 289
281 281 281 281 281 281 281 280 280 280 280 280 280 280 281 281 281 281 281 281 281 281 281 281 281 281 281 281 281 281 281 281 281 281 282 282 282 281 282 282 282 282 282 282 282 283 283 283 282 282 282 282 282 282 282 282 282 283 283 283 283 284 284 284 284 284 284 284 284 284 284 284 284 284 284 284 284 285 285 285 285 285 286 286 286 286 286 286 287 287 287 287 287 287 288 288 288 289 289 289 288 289 289
280 280 280 280 280 280 280 280 280 280 280 280 280 280 280 280 280 281 281 281 281 281 281 281 281 281 281 281 281 281 281 281 281 281 281 281 281 281 281 281 281 282 282 282 282 282 282 282 282 281 281 281 281 282 282 282 282 283 283 283 283 283 283 284 284 284 284 284 284 284 284 284 284 284 284 284 285 285 285 285 285 285 285 285 286 286 286 286 286 287 287 287 287 287 287 287 288 288 288 288 288 288 288
280 280 280 280 280 280 280 280 280 280 280 280 280 280 280 280 280 280 280 280 281 281 281 281 280 281 281 281 281 281 280 281 281 281 281 281 280 280 280 280 281 281 281 281 281 281 281 281 281 281 281 281 281 281 282 282 282 282 282 283 283 283 283 283 283 283 284 284 284 284 284 284 284 284 284 284 285 285 285 285 285 285 285 285 285 286 286 286 286 286 286 287 287 287 287 287 287 288 288 288 288 288 288
280 280 280 280 280 280 280 280 280 280 279 279 279 280 280 280 280 280 280 280 280 280 280 280 280 280 280 280 280 280 280 280 280 280 280 280 280 280 280 280 280 280 281 281 281 281 281 282 282 282 282 281 281 282 282 282 282 282 282 282 283 283 283 283 283 283 283 283 284 284 283 283 284 284 284 284 284 284 284 284 284 284 285 285 285 285 285 285 286 286 286 286 286 286 286 287 287 287 287 287 287 288 288
280 280 279 279 279 279 280 279 279 280 280 280 280 280 280 280 280 280 281 281 281 281 280 280 280 280 279 279 279 279 280 280 279 279 280 280 280 279 279 279 280 280 280 281 281 282 282 282 282 282 282 282 282 282 282 282 282 282 282 282 282 282 282 282 282 283 283 283 283 283 283 283 284 284 284 284 284 284 284 284 284 284 284 284 285 285 285 285 285 285 285 286 286 286 286 286 287 287 286 286 286 286 287
279 279 279 279 279 279 279 279 279 280 280 280 280 280 280 280 280 281 281 281 281 280 280 280 280 279 279 279 279 279 279 279 279 279 279 279 279 280 280 280 280 280 280 281 281 281 282 282 282 282 283 283 283 282 282 281 282 282 282 282 282 282 282 282 282 282 282 283 283 283 283 283 283 283 283 283 283 283 283 284 284 284 284 284 284 284 284 284 285 285 285 285 285 285 285 285 286 286 285 285 285 285 285
279 279 279 279 279 279 279 279 279 279 279 280 280 280 280 280 280 280 280 280 280 280 280 280 280 280 280 280 280 279 279 279 279 279 279 279 279 279 280 280 280 280 280 281 281 281 282 282 282 282 282 282 282 282 281 281 281 282 282 282 282 282 282 282 282 282 282 282 282 283 283 283 283 283 283 283 283 283 283 283 283 284 283 283 283 284 284 284 284 284 284 284 284 284 284 284 284 284 284 284 283 283 284
279 279 279 279 279 279 279 279 279 279 279 279 279 280 280 280 280 280 280 280 280 280 280 280 280 280 280 279 279 279 279 279 279 279 279 279 279 279 279 280 280 280 280 280 281 281 282 282 282 282 282 282 282 281 281 281 281 281 282 282 282 281 281 282 282 282 282 282 282 283 283 283 283 283 282 282 283 283 283 283 283 283 283 283 283 283 283 283 283 283 283 283 283 283 283 283 283 283 283 282 282 283 283
280 280 279 279 279 279 279 279 279 279 279 280 280 280 280 280 280 280 280 280 280 280 280 280 279 279 279 279 279 279 279 279 279 279 279 279 279 279 279 279 279 279 280 280 280 281 281 281 282 282 282 282 281 281 281 281 281 281 281 282 282 282 282 282 282 282 282 282 282 282 283 283 282 282 282 282 283 283 282 282 282 282 282 282 282 282 282 283 283 283 283 283 283 283 282 282 282 282 282 281 281 282 282
280 280 280 279 279 279 279 279 279 280 280 280 280 280 280 280 280 280 280 280 280 280 279 279 279 279 279 279 278 278 279 279 279 279 279 279 279 279 279 279 279 279 279 280 280 280 281 281 281 281 281 281 281 281 282 282 282 282 282 282 282 282 283 282 282 282 282 282 282 282 282 282 282 282 282 282 282 282 282 282 282 282 281 282 282 282 282 282 282 282 282 282 281 281 282 281 281 281 281 281 281 281 281
280 280 280 280 279 279 279 279 279 279 279 279 279 279 279 279 280 280 280 280 279 279 279 279 279 279 279 278 278 278 279 279 279 279 279 279 280 280 279 279 279 279 280 280 280 280 280 281 281 281 281 281 281 281 281 281 282 282 282 282 282 283 283 282 283 283 283 282 282 282 282 282 282 282 282 281 282 282 282 282 282 281 281 281 281 281 281 281 281 281 281 281 281 280 280 281 281 281 280 280 280 280 280
280 280 280 279 279 279 279 279 279 279 279 279 279 279 279 279 279 280 280 279 279 279 279 279 279 279 279 279 279 279 279 279 279 280 280 280 280 280 280 280 280 280 280 280 280 281 281 281 281 281 281 281 281 281 281 281 281 282 282 282 282 282 282 283 283 283 283 283 282 281 281 281 281 281 281 281 281 281 281 281 281 281 281 281 281 281 281 281 281 280 280 280 280 279 280 280 280 280 280 280 280 280 280
280 280 280 280 279 279 279 279 279 279 279 279 279 279 279 279 279 279 279 280 280 280 279 279 279 279 279 279 279 280 280 280 280 281 281 281 281 280 280 280 281 281 281 281 281 281 281 281 281 281 281 281 281 280 281 281 281 282 281 282 282 282 282 282 283 283 283 282 282 281 281 281 281 281 281 281 281 281 281 281 281 281 281 281 281 281 280 280 280 280 280 279 279 279 279 279 279 279 279 279 279 279 279
280 280 280 280 280 280 279 279 279 278 278 279 279 279 279 279 279 279 279 280 280 280 280 280 280 280 280 280 280 280 280 281 281 281 281 281 281 281 281 281 281 281 281 281 281 281 281 281 281 281 280 281 280 280 280 281 281 281 281 281 281 282 282 282 282 282 282 282 281 281 281 281 280 280 280 280 281 281 281 281 281 281 281 281 281 281 281 280 280 280 280 279 279 279 279 279 279 279 279 279 279 279 279
280 280 280 280 280 279 279 279 278 278 278 279 279 279 279 279 279 280 279 280 280 280 280 280 280 280 280 280 280 280 281 281 281 281 281 281 281 281 281 281 281 281 281 281 281 281 281 281 280 280 280 280 280 280 280 280 281 281 281 281 281 281 281 282 281 281 281 281 282 281 281 281 281 280 280 280 280 280 280 280 280 280 280 280 280 280 280 280 280 280 280 279 279 279 278 278 278 279 279 279 279 279 279
280 280 280 280 279 279 279 278 278 278 279 279 279 279 279 280 280 280 280 280 280 280 280 280 280 280 281 281 281 281 281 281 281 281 281 281 281 281 281 281 281 281 281 281 281 281 280 280 280 280 280 280 280 280 280 280 280 280 281 281 280 280 281 281 281 281 281 281 281 281 281 281 281 280 280 280 280 280 280 280 280 279 280 280 280 280 280 279 279 279 279 279 278 278 278 278 278 278 278 279 279 279 279
280 280 279 279 279 279 279 279 278 279 279 279 280 280 280 280 280 280 280 280 280 280 280 280 280 281 281 281 281 281 281 281 281 281 281 281 281 281 281 281 281 281 281 280 280 280 280 280 280 280 280 280 280 280 280 280 280 280 281 280 280 280 281 280 280 280 280 280 280 280 280 280 280 280 280 279 280 280 279 279 279 279 279 279 279 279 279 279 278 278 278 278 278 278 278 278 278 278 278 278 278 279 279
280 279 279 279 279 279 279 279 279 279 279 279 280 280 280 280 280 280 280 280 280 280 280 280 281 281 281 281 281 281 281 281 281 281 281 281 281 281 281 281 281 281 280 280 280 280 280 280 280 280 280 280 280 280 280 280 280 280 280 280 281 281 280 280 280 280 280 280 280 280 280 280 280 280 279 279 279 279 279 279 279 279 278 278 278 278 278 278 278 278 278 278 277 277 277 277 278 278 278 278 278 278 278
280 280 280 280 279 279 279 279 279 279 279 279 280 280 280 280 280 280 280 280 280 280 280 280 281 281 281 281 281 281 281 281 281 281 281 281 281 281 281 280 280 280 280 280 280 280 280 280 280 280 280 280 280 280 280 280 280 280 280 280 280 280 280 280 280 280 280 280 280 280 279 279 279 279 279 279 279 279 279 279 279 278 278 278 278 278 278 278 278 278 277 277 277 277 277 277 277 277 277 278 278 278 277
280 280 279 279 280 280 279 279 279 280 280 279 280 280 279 280 280 280 280 280 280 280 280 280 280 281 281 281 281 281 281 281 281 281 281 281 281 281 280 280 280 280 280 280 280 280 280 280 280 280 280 280 280 280 280 280 280 280 280 280 280 280 280 280 280 280 280 280 279 279 279 279 279 279 279 279 279 279 278 278 278 278 278 278 278 278 277 278 278 277 277 277 277 277 277 277 277 277 277 277 278 278 278
280 280 280 280 280 280 279 280 280 280 280 280 280 279 279 279 280 280 280 280 280 280 280 280 280 280 281 280 280 281 281 281 280 280 280 280 280 280 280 280 280 280 280 280 280 280 280 280 280 280 280 280 280 280 280 280 279 279 280 280 280 280 280 280 280 280 280 280 279 278 278 278 279 279 279 279 279 279 278 278 278 278 278 277 277 277 277 277 277 277 277 277 276 277 277 277 277 277 277 277 278 278 278
280 280 280 280 280 280 280 280 280 280 280 280 280 279 279 279 279 279 279 279 280 280 280 280 280 280 280 280 280 280 280 280 280 280 280 280 280 279 279 279 279 280 280 280 280 280 280 279 279 279 280 280 280 279 279 279 279 279 280 280 280 280 280 280 280 280 280 280 279 279 279 279 279 279 279 279 279 279 279 278 278 278 277 277 277 277 277 277 277 277 277 277 277 277 277 277 277 277 277 278 278 278 278
281 280 280 280 280 280 280 280 280 280 280 280 280 279 279 278 278 278 278 279 279 279 279 280 280 280 280 280 280 280 280 280 279 279 279 279 279 279 279 279 279 280 279 279 280 279 280 279 279 279 279 279 279 279 279 279 279 279 280 280 280 280 280 280 280 280 280 280 280 280 279 279 279 279 279 279 278 278 278 278 278 278 277 277 277 277 277 277 277 276 276 276 277 277 277 277 277 278 278 278 278 278 278
281 281 281 281 280 281 281 281 281 280 280 280 280 280 279 279 278 278 278 279 279 279 279 279 280 280 279 279 280 280 279 279 279 279 279 279 278 278 279 279 279 279 279 279 279 279 279 279 279 279 279 279 279 279 279 279 279 279 279 279 280 279 279 280 280 280 280 280 280 280 280 279 279 279 279 278 278 278 278 277 278 278 278 278 277 277 276 276 276 276 276 276 276 277 277 277 278 278 278 279 279 279 279
281 281 281 281 281 280 280 280 280 280 279 279 279 280 280 279 278 278 279 279 279 279 279 279 280 279 279 279 279 279 279 279 279 278 278 278 278 278 278 279 279 279 279 279 279 279 278 279 279 279 279 279 279 279 279 279 279 279 279 279 279 279 279 280 280 280 280 280 280 280 280 279 279 279 279 278 278 277 277 277 277 278 278 278 277 277 276 276 276 276 276 276 276 277 277 277 278 278 279 279 278 278 278
281 281 281 280 280 280 280 279 279 279 279 279 280 280 280 280 279 279 279 279 279 278 279 279 279 279 279 279 279 279 279 278 278 278 278 278 278 278 278 279 279 279 279 278 278 279 278 278 279 279 278 279 279 279 279 278 279 279 279 279 279 279 279 280 280 280 280 280 280 280 280 279 279 279 279 278 278 277 277 277 277 277 278 278 278 277 276 276 276 276 276 276 277 278 278 278 277 277 278 278 279 278 279
281 281 281 281 280 280 280 279 279 280 280 280 280 280 280 280 280 280 279 278 278 278 278 278 278 278 279 279 279 279 279 278 278 278 277 277 277 277 278 278 279 279 278 278 278 278 278 278 278 278 278 278 278 278 278 278 279 279 279 279 279 279 279 280 280 280 280 280 280 280 280 279 279 279 279 278 278 277 277 276 277 277 278 278 277 276 276 276 276 276 276 277 277 277 277 278 278 278 278 278 279 279 279
281 281 281 281 280 280 280 280 280 280 280 280 280 279 279 279 279 279 279 278 278 278 278 278 278 278 278 279 279 278 278 278 278 277 277 277 277 277 277 278 278 278 278 278 278 278 278 278 278 278 278 278 278 279 278 278 278 279 279 279 279 279 279 279 280 280 280 280 280 280 280 280 280 279 279 279 278 277 277 277 277 277 277 277 277 276 276 276 276 276 276 277 277 277 277 278 278 278 278 278 278 279 279
281 282 281 281 280 280 280 280 280 280 280 280 279 279 279 278 278 278 278 278 278 278 278 278 278 278 278 278 278 278 278 278 277 276 276 276 276 277 277 277 277 277 277 277 277 277 277 278 278 278 278 278 278 279 279 278 278 279 279 279 279 279 279 279 279 280 280 280 279 279 280 280 279 279 279 278 278 277 276 277 277 277 277 277 277 276 276 276 276 276 276 276 277 277 277 278 278 278 278 278 278 278 279
282 282 282 281 281 280 280 280 280 280 280 279 279 279 279 279 278 278 278 278 278 278 278 278 278 278 278 278 278 278 278 277 277 276 275 275 276 276 276 276 277 276 276 276 277 276 277 277 278 278 278 278 278 278 278 278 278 278 278 279 279 279 279 279 279 279 279 279 279 279 279 279 279 279 278 277 277 277 276 277 277 276 277 277 277 276 276 276 276 276 276 276 276 276 277 277 278 278 278 278 279 279 279
282 282 282 281 281 280 280 280 280 280 280 279 279 279 279 279 278 278 278 278 279 278 278 278 278 278 278 278 278 277 277 277 276 276 275 275 274 275 276 276 276 276 276 276 276 277 277 277 278 278 278 278 278 278 278 278 278 278 278 279 279 279 279 279 279 279 279 279 279 279 279 279 278 278 277 277 276 276 276 276 276 276 276 276 276 276 276 276 276 276 276 276 276 276 277 277 278 278 279 279 279 279 279
282 282 281 281 280 280 280 280 280 280 279 279 278 278 279 279 278 279 279 279 279 279 279 278 278 278 278 278 277 277 277 276 276 276 275 274 273 274 275 276 276 276 276 276 276 276 277 277 278 278 278 278 278 278 278 278 278 278 279 279 279 279 279 279 279 279 279 278 278 278 278 278 278 278 277 276 276 276 276 276 276 276 276 276 276 276 276 276 276 276 276 276 276 276 277 278 278 279 279 279 279 279 279
282 281 281 280 280 280 280 280 280 279 279 278 278 278 278 278 278 279 279 279 279 278 278 278 278 278 278 277 277 277 276 276 275 276 275 274 273 273 274 275 275 276 276 276 276 276 277 277 277 277 278 277 277 277 277 278 278 278 278 279 279 279 278 279 279 279 279 279 279 279 278 278 277 277 277 276 276 276 276 275 275 275 276 276 276 276 275 275 275 276 276 276 276 276 277 278 278 278 278 278 279 279 279
Wind_Speed
8 9 9 10 10 11 11 11 10 10 11 11 11 12 12 12 11 12 12 11 10 9 10 10 10 8 8 7 6 6 5 5 5 6 6 6 6 6 7 7 7 8 8 8 8 8 9 9 9 9 9 9 8 9 10 11 11 8 9 11 13 10 10 11 12 13 14 13 11 9 7 6 6 7 7 4 0 4 5 4 2 1 2 4 5 5 5 4 4 3 3 3 3 3 3 3 3 3 3 2 1 1 1
7 8 9 9 10 10 10 10 10 10 10 11 11 11 12 12 12 12 12 12 10 9 9 9 9 8 7 6 6 5 5 4 4 5 5 5 6 6 6 6 7 8 9 8 8 8 8 8 9 9 8 8 9 9 10 11 11 10 12 13 13 11 12 11 11 12 14 13 11 10 10 9 9 9 7 4 2 3 3 4 5 5 6 6 7 8 7 6 6 5 3 2 2 2 1 0 1 2 3 2 1 1 2
7 7 8 9 9 9 9 10 10 10 10 10 11 11 12 13 13 13 12 12 12 12 11 10 9 8 7 6 6 5 5 4 4 4 5 5 5 5 5 6 7 8 8 8 8 8 8 8 8 9 8 8 8 9 11 12 12 12 14 14 13 14 13 12 11 10 13 13 12 11 11 10 9 8 6 5 5 5 6 6 6 7 7 7 8 8 8 8 8 7 5 4 2 2 2 1 1 2 1 1 3 3 3
6 7 8 8 9 9 9 9 10 10 10 10 11 12 12 13 13 13 13 12 12 12 12 11 10 9 9 8 8 8 7 6 6 6 6 6 7 7 7 7 8 8 8 8 8 7 7 8 8 8 7 7 7 8 9 11 13 15 15 14 14 16 15 14 13 13 13 13 13 12 11 10 9 8 6 6 6 6 8 7 7 7 7 8 9 9 9 9 8 7 7 5 3 1 2 2 2 2 2 3 4 4 3
6 7 7 8 8 8 8 9 9 9 10 10 11 11 12 12 13 13 13 14 14 14 14 13 12 11 11 10 9 9 9 8 7 7 7 7 7 8 8 8 8 8 8 8 7 7 8 8 9 9 8 8 7 8 8 10 13 17 17 16 15 15 15 14 14 14 14 14 14 13 12 11 9 8 7 6 7 7 8 8 8 7 6 7 7 7 8 8 6 6 6 6 5 4 2 2 2 2 2 3 3 4 3
7 7 7 7 8 8 8 8 9 9 9 9 10 11 12 13 13 13 14 14 14 14 14 13 13 12 12 11 10 10 10 10 9 8 8 8 8 9 10 10 10 10 10 9 8 8 9 9 9 9 9 9 9 9 8 11 15 18 17 16 15 16 15 14 13 15 16 16 15 13 13 12 11 9 8 7 7 7 8 9 9 8 7 6 6 6 7 6 6 5 5 5 5 5 4 2 1 2 2 2 2 3 3
7 7 7 7 8 8 8 9 9 9 9 9 10 11 12 13 13 13 13 13 13 13 13 13 12 12 12 12 11 10 10 11 11 10 11 12 13 14 14 13 12 12 11 10 9 9 8 9 10 10 9 9 9 9 10 12 14 15 14 14 14 16 16 15 14 15 17 16 15 13 14 14 13 13 10 8 7 7 8 9 9 9 7 7 6 6 7 7 6 6 6 5 5 4 4 4 2 1 2 2 2 3 3
6 6 7 8 8 9 9 9 9 10 10 11 11 11 12 13 13 13 12 11 12 13 12 12 12 11 11 11 11 10 10 11 11 11 11 11 12 13 13 13 12 12 12 12 11 11 9 8 7 7 8 8 9 9 10 11 12 11 11 12 14 16 17 16 16 15 17 17 16 14 15 15 15 13 12 10 8 8 9 9 8 9 7 7 6 6 7 7 7 7 7 6 5 4 4 4 4 2 1 1 2 3 3
7 7 7 8 8 9 9 9 10 10 11 12 12 12 12 12 13 13 12 11 12 13 13 12 12 12 10 10 9 9 9 9 9 8 7 7 7 8 8 8 9 9 8 8 8 7 6 6 6 7 7 7 7 8 9 10 10 9 9 11 14 17 17 17 17 15 16 17 16 15 15 15 14 13 13 12 10 9 9 9 9 8 8 7 6 6 6 7 7 7 7 7 7 5 4 4 4 4 3 2 1 2 3
7 7 7 7 8 8 9 10 10 11 12 12 13 12 12 12 12 12 12 12 13 13 13 13 13 12 11 10 9 8 8 7 6 5 5 4 4 5 5 6 6 6 5 5 5 5 5 5 6 7 7 7 6 6 7 8 8 8 8 11 14 17 18 18 17 16 16 16 16 16 14 13 14 14 13 13 12 10 9 9 9 8 8 7 7 6 6 6 7 7 8 8 8 7 5 4 5 5 4 3 2 1 2
6 6 6 7 7 8 9 10 11 12 12 12 12 12 12 12 12 12 12 12 13 13 13 13 13 13 11 10 9 10 9 8 8 7 5 5 5 4 5 5 5 5 5 5 5 6 6 5 5 6 6 6 6 6 7 7 7 7 8 10 12 16 17 17 16 15 16 15 15 15 14 13 13 14 14 14 13 12 10 9 9 8 8 7 7 6 6 6 6 6 8 8 8 8 6 5 5 5 5 4 3 1 1
5 6 6 6 7 8 10 11 12 12 13 13 12 12 12 12 11 11 12 13 13 13 13 13 13 13 12 11 10 11 10 10 9 8 6 5 6 6 7 7 7 7 7 7 7 7 6 6 5 5 6 6 6 6 6 6 7 8 8 8 9 12 14 15 13 12 14 14 14 15 15 14 13 13 14 14 14 13 11 10 9 8 8 7 6 6 6 6 6 6 7 8 8 8 7 5 5 5 5 4 3 2 2
6 6 7 7 8 9 11 12 13 13 13 13 12 12 12 12 12 13 13 13 13 13 13 13 13 13 13 12 11 10 10 10 10 10 8 7 6 7 8 8 9 10 9 9 8 7 7 7 7 7 7 6 6 6 6 6 7 8 8 7 7 8 11 12 11 9 11 13 14 15 15 14 13 13 14 14 13 12 11 10 9 8 8 7 6 6 6 6 6 5 6 7 8 8 7 6 5 4 5 5 4 4 3
6 7 7 8 9 10 11 12 13 14 13 13 12 11 11 11 12 13 13 13 13 13 13 13 13 13 14 13 12 11 11 10 10 10 10 9 7 7 7 8 10 10 10 9 8 8 8 8 7 8 7 6 6 6 7 7 8 8 7 6 6 6 7 9 10 10 10 11 13 13 14 13 12 11 11 12 12 11 10 9 8 7 7 6 6 6 6 6 6 6 6 6 7 7 7 6 5 4 4 5 5 4 4
7 7 8 9 10 11 12 13 13 13 13 13 12 11 12 12 11 12 12 12 12 12 13 13 13 13 14 14 14 12 13 12 11 10 11 10 8 8 8 8 8 8 9 8 8 9 9 8 7 7 7 7 7 7 7 7 8 7 6 6 6 6 6 7 9 11 11 12 12 12 13 13 11 10 10 10 11 10 9 8 8 7 6 6 5 6 6 7 8 8 8 7 7 7 6 6 5 4 4 4 4 4 3
7 7 8 10 11 12 12 13 13 13 13 13 12 12 12 12 11 11 11 11 11 12 12 13 14 14 14 14 14 13 14 14 13 12 12 11 11 10 9 8 8 8 9 9 8 8 8 8 7 6 7 7 7 7 7 7 8 8 7 7 6 6 6 6 7 9 11 12 12 12 12 12 11 10 9 9 9 9 9 8 8 7 6 5 6 6 7 8 8 9 9 8 8 7 7 6 6 6 4 4 4 4 3
7 8 9 11 11 12 12 12 12 13 13 12 12 11 11 11 11 11 11 11 12 12 12 13 14 15 14 14 13 13 14 14 14 14 13 12 12 11 10 10 10 10 11 10 9 8 7 7 6 6 7 7 7 6 6 7 8 9 7 7 6 6 5 5 5 6 8 9 10 11 11 11 10 10 9 8 8 8 8 8 7 6 5 5 6 7 8 8 8 8 8 8 8 8 7 7 7 7 5 4 3 4 4
9 10 10 11 11 11 11 11 11 12 12 11 11 11 11 11 11 12 12 12 12 12 13 13 14 15 14 13 14 14 15 15 15 15 14 13 12 12 10 10 11 12 12 12 10 9 8 8 7 7 7 7 6 6 6 6 7 7 6 5 5 4 4 4 4 4 4 6 7 9 9 9 9 9 8 7 7 8 7 6 6 5 5 5 6 6 7 7 7 7 7 7 6 7 7 6 6 6 5 4 3 4 4
10 10 10 10 10 10 11 11 10 10 11 11 11 11 11 11 11 12 12 12 12 13 13 13 14 14 14 14 14 14 15 14 14 15 14 13 13 12 11 10 10 11 12 12 11 10 9 9 8 7 7 7 6 6 6 6 5 5 5 5 4 4 3 3 3 3 3 4 5 7 7 8 7 7 7 7 7 7 6 6 5 5 5 5 5 5 5 5 6 5 5 5 5 5 5 5 5 6 5 4 4 5 4
10 9 9 9 9 10 10 10 10 10 10 10 11 11 11 11 11 11 12 12 12 12 12 13 13 13 14 14 14 14 13 13 13 14 13 13 13 13 12 11 11 11 12 11 10 10 9 9 8 8 7 7 6 6 6 6 5 5 4 4 4 3 4 4 4 4 4 4 5 6 7 7 7 6 6 7 7 6 5 5 5 4 4 4 4 4 4 5 5 5 4 4 4 4 4 4 4 5 5 5 4 4 4
9 9 9 9 9 9 10 10 10 10 11 11 12 12 12 12 12 11 11 12 12 12 13 13 13 13 14 13 13 13 13 13 13 13 13 13 13 13 12 12 11 11 11 10 10 10 9 9 8 7 7 6 6 5 5 5 5 4 4 4 4 4 4 4 4 4 4 4 5 5 6 7 6 5 6 6 6 5 4 4 4 4 4 4 3 3 4 4 5 4 4 3 3 4 3 3 3 4 4 4 4 4 4
9 10 10 10 10 10 10 11 11 11 11 12 12 13 13 12 12 12 11 11 11 12 13 13 14 14 13 13 13 12 12 13 13 13 13 13 13 13 12 11 11 11 10 9 9 9 9 9 8 7 7 6 6 5 5 4 4 4 4 4 4 4 4 4 4 4 4 4 5 6 7 6 5 5 5 5 5 4 4 3 3 3 3 3 4 3 4 4 4 4 3 3 3 4 3 3 3 4 3 4 4 4 4
10 10 11 11 11 11 11 11 11 11 11 11 12 12 12 13 13 12 12 11 10 11 13 13 13 13 13 12 12 12 12 12 13 13 13 13 13 12 11 11 10 9 8 8 8 7 8 8 7 6 6 6 5 5 4 4 4 4 4 4 4 4 4 4 4 4 4 4 5 5 6 6 5 5 5 5 4 4 4 4 3 3 3 4 4 4 4 4 4 4 3 3 3 3 3 3 4 4 3 4 4 5 5
11 11 11 11 12 12 11 11 11 11 11 11 11 12 12 13 13 13 12 12 12 12 13 13 13 13 12 12 12 12 12 12 12 12 13 12 12 12 11 10 9 8 8 7 6 7 7 7 6 6 5 5 5 5 4 4 4 4 4 4 4 4 4 4 4 4 4 4 4 5 5 5 5 5 5 5 4 4 4 4 4 4 4 4 3 3 4 4 4 4 3 3 3 3 4 4 4 3 3 4 5 5 5
10 10 10 10 11 11 11 11 11 12 12 12 12 12 12 12 12 12 12 12 12 12 12 12 12 12 12 12 12 12 12 12 12 12 12 12 11 12 12 11 10 9 8 7 7 6 6 6 6 6 6 5 5 5 5 4 4 4 4 4 4 3 3 3 3 3 4 4 4 4 5 5 5 5 5 5 4 4 4 4 4 4 4 4 4 4 4 4 5 5 4 3 3 3 4 4 3 3 4 4 5 4 4
9 9 9 9 9 10 10 10 10 11 11 11 12 12 12 12 11 12 12 12 12 12 12 12 12 11 11 11 12 12 12 12 12 12 12 11 11 11 11 10 10 10 9 9 7 7 6 6 6 6 6 5 5 5 5 4 4 4 4 4 4 4 3 3 3 3 3 3 4 4 4 5 5 5 5 5 4 5 5 5 5 5 5 6 6 6 6 6 5 6 5 4 3 3 4 4 3 3 4 4 5 5 4
9 9 9 9 9 9 9 9 10 10 10 10 11 11 11 11 11 11 11 11 11 11 11 11 11 10 10 11 11 11 11 11 11 12 11 11 10 9 9 9 10 10 10 9 8 7 6 6 5 5 5 5 5 5 4 4 4 4 4 4 4 4 3 3 3 3 3 3 4 4 4 4 5 5 5 5 5 5 6 6 6 6 7 7 7 7 7 7 6 7 5 4 3 3 4 4 4 3 4 4 5 5 4
9 9 9 9 9 9 9 9 9 9 9 9 10 11 11 11 11 11 11 11 11 10 10 10 10 10 10 10 10 11 11 11 11 11 10 10 9 9 9 9 9 9 9 9 8 8 7 6 5 5 5 5 5 5 4 4 4 3 3 3 3 3 3 3 3 2 3 4 4 5 5 5 5 6 6 6 6 6 7 8 8 8 8 8 8 8 8 8 7 7 6 4 3 3 4 4 4 4 4 5 5 5 4
9 9 8 8 8 8 8 8 8 8 8 8 9 9 9 10 10 10 10 10 10 10 10 10 9 9 9 9 10 10 10 10 10 9 9 9 8 8 8 8 9 9 9 8 8 8 8 7 6 5 5 5 5 4 4 3 3 3 3 3 3 3 3 3 3 3 3 4 4 5 6 6 6 7 7 7 7 7 8 9 9 9 9 9 9 9 9 9 8 8 6 4 4 4 5 4 4 4 5 5 5 5 4
8 8 8 8 7 7 7 7 8 8 8 8 8 8 8 8 8 8 9 9 9 9 9 9 9 8 8 8 9 9 9 9 9 9 8 8 8 8 8 8 8 9 9 8 8 7 8 7 6 5 5 5 4 3 3 3 3 3 3 3 3 3 3 4 4 4 4 4 4 5 7 7 7 8 7 7 8 8 9 9 10 10 10 9 9 9 9 9 9 9 5 4 4 5 4 4 5 6 6 6 5 4 4
8 8 8 7 7 6 6 7 7 7 7 7 7 8 8 8 8 8 8 8 9 9 9 8 8 9 8 8 8 9 9 9 9 9 8 8 8 7 7 8 8 8 8 8 8 7 7 7 6 5 6 5 4 4 4 4 4 3 3 3 3 3 4 4 5 5 5 5 6 7 7 8 8 8 8 8 8 8 9 9 10 10 10 9 9 9 9 9 9 8 5 4 4 4 4 5 6 7 7 6 6 5 5
8 8 7 7 6 6 6 6 6 6 6 7 7 8 8 8 8 8 9 9 9 9 8 8 8 8 8 8 8 8 8 8 8 8 8 8 8 7 6 6 7 8 8 8 8 8 7 7 6 6 5 5 5 4 6 6 6 5 5 5 5 4 4 4 5 5 6 6 7 7 8 8 8 8 8 9 9 8 9 9 10 9 10 10 10 9 9 9 8 7 5 4 4 4 4 5 6 7 7 7 7 6 6
7 7 7 6 6 6 6 6 6 6 7 7 8 8 8 8 9 9 9 9 9 9 8 8 8 8 8 8 8 8 8 8 8 8 8 8 8 7 7 6 7 7 8 8 8 7 7 7 7 7 6 5 5 5 6 7 7 7 6 6 6 5 5 5 5 5 7 8 8 8 8 8 8 9 9 9 9 9 9 10 9 9 9 9 9 9 9 9 8 6 5 4 5 4 4 5 7 8 8 8 7 7 6
7 7 6 6 6 6 6 6 6 7 7 8 8 8 9 9 9 9 9 9 9 9 9 8 8 8 8 8 8 8 8 8 8 8 9 9 8 8 8 8 7 7 7 8 8 8 7 7 7 7 7 7 6 6 7 7 7 7 7 7 6 6 6 6 6 6 7 8 8 8 8 8 8 8 8 9 9 9 9 9 9 9 9 9 8 8 8 8 8 6 5 5 5 5 5 6 7 8 8 8 8 7 6
6 6 6 6 6 6 6 6 7 7 7 8 8 9 9 9 9 9 9 9 9 9 9 9 8 8 8 8 8 9 9 9 9 9 9 9 9 9 9 9 8 8 8 8 8 8 8 8 7 7 8 8 8 8 8 8 8 7 8 7 7 5 5 6 7 7 8 8 8 8 8 8 8 8 8 8 8 8 8 8 8 8 8 8 7 7 7 7 7 5 5 5 5 5 6 7 7 8 8 8 8 6 7
6 6 5 5 5 5 6 6 7 7 7 8 8 8 9 9 9 9 9 9 9 9 9 9 9 8 9 9 9 9 9 9 9 9 9 8 8 9 9 9 9 9 9 8 8 8 8 8 8 8 8 8 8 8 8 8 8 8 8 7 7 6 6 7 7 7 8 8 8 8 8 8 8 7 7 7 7 7 7 7 7 7 7 7 7 7 6 6 5 5 5 6 7 7 7 7 7 7 8 8 8 7 8
5 5 5 5 5 5 6 6 7 7 8 8 8 9 9 9 9 9 9 9 9 9 9 9 8 8 9 9 9 9 9 9 8 8 8 8 8 8 9 9 9 9 9 9 8 8 8 8 8 8 7 7 8 8 8 8 8 8 8 8 7 7 7 7 7 7 7 7 7 7 7 7 7 7 7 7 6 7 7 7 6 6 6 7 7 7 6 5 5 5 6 7 8 8 7 7 7 8 8 9 9 9 9
5 5 5 5 5 6 6 6 7 8 8 8 9 9 9 9 9 9 9 9 9 9 8 8 8 8 9 9 9 9 8 8 8 8 8 8 8 8 8 9 9 9 9 9 8 8 8 8 8 8 7 7 8 9 8 8 8 8 8 8 8 8 8 7 6 6 6 6 6 6 6 6 6 6 6 6 6 6 6 6 6 6 6 7 7 6 6 6 6 7 8 8 9 9 8 8 8 9 9 9 10 10 10
5 5 5 5 5 6 6 7 8 8 8 8 9 9 9 9 9 9 9 9 8 8 8 8 8 9 9 9 9 9 8 8 8 8 8 8 8 8 8 9 9 9 9 9 9 9 9 8 8 8 7 7 8 8 8 8 7 7 8 8 8 8 7 7 6 6 5 5 6 5 5 5 5 5 5 6 6 6 7 7 7 7 7 7 7 6 7 7 7 8 8 9 9 10 9 9 10 10 10 10 10 10 11
5 5 5 5 5 6 7 8 8 9 9 9 9 9 9 9 8 8 8 8 8 8 9 9 9 9 9 9 9 9 8 8 8 7 7 8 8 8 8 8 8 8 9 9 9 9 9 8 7 7 6 6 7 7 7 7 6 6 6 7 7 7 7 6 6 6 5 5 5 5 5 5 5 5 6 6 7 7 7 8 8 8 8 8 8 8 8 8 8 9 9 9 10 10 10 10 10 10 10 10 10 10 11
4 5 5 5 6 7 8 8 9 9 9 9 9 8 8 8 8 7 7 8 8 8 9 9 9 9 9 9 8 8 8 7 7 7 7 7 7 7 7 7 8 8 8 8 8 8 8 8 7 6 5 5 6 6 6 6 5 5 5 5 6 6 6 5 5 5 4 4 4 4 4 5 5 5 6 6 7 7 8 8 9 9 9 9 9 9 9 9 9 9 9 10 10 10 10 10 10 10 10 10 11 11 11
4 5 5 6 7 8 8 8 8 8 8 8 8 7 7 7 7 7 7 7 7 7 8 8 8 8 8 8 8 8 7 7 7 7 7 7 7 7 7 7 7 7 8 8 8 8 8 7 7 6 5 5 5 5 5 5 4 4 4 4 4 5 4 4 4 4 4 4 4 4 4 4 5 5 5 6 7 8 8 9 9 9 9 10 10 10 10 10 9 9 9 9 10 10 10 10 10 11 11 11 11 11 12
5 5 6 6 7 8 8 8 8 8 7 7 7 7 7 6 6 6 6 6 6 6 6 7 7 7 7 7 7 7 7 6 6 6 6 6 6 6 6 6 7 7 7 7 7 7 7 7 7 7 6 5 5 5 5 4 4 4 4 3 3 3 4 4 4 4 3 3 3 4 4 4 4 5 5 6 6 7 8 8 8 9 9 9 9 9 9 9 9 9 9 9 9 9 9 10 10 10 10 10 11 11 12
5 6 6 6 7 7 7 7 7 7 7 7 6 6 6 6 6 5 5 5 5 5 5 5 6 6 7 7 6 6 6 6 6 6 6 6 6 6 6 6 6 6 6 6 7 7 7 7 7 6 6 6 5 5 4 4 4 4 4 3 3 3 3 4 4 3 3 3 3 3 4 4 4 4 5 5 6 6 7 7 7 8 8 8 8 8 8 8 8 8 8 9 9 9 9 9 10 10 10 10 11 11 11
5 5 6 6 7 7 7 7 6 6 6 6 6 6 5 5 5 5 5 5 5 5 5 5 6 6 6 6 6 6 6 6 5 5 5 5 5 5 5 5 6 6 6 6 6 7 7 6 6 6 6 5 5 4 4 4 4 4 4 4 4 4 4 4 4 4 3 2 2 3 3 3 4 4 4 5 5 5 6 6 7 7 7 7 7 8 8 8 8 7 8 8 9 9 9 10 10 10 10 11 11 10 11
5 5 6 6 6 6 6 6 6 5 5 5 5 5 5 4 4 5 5 5 5 5 5 6 6 6 6 6 6 5 5 5 5 5 5 5 5 5 5 5 5 5 6 6 6 6 6 6 6 6 5 5 5 4 4 4 3 3 3 4 4 4 4 4 4 4 3 2 2 2 3 3 4 4 4 4 5 5 5 5 6 6 6 7 7 7 7 7 7 7 8 8 9 9 10 10 10 10 11 11 11 11 11
5 5 5 5 5 5 5 5 5 5 5 5 5 4 4 4 4 5 5 5 5 5 5 6 6 6 6 6 6 5 5 5 5 5 5 5 5 5 5 5 5 5 5 5 5 6 6 6 6 5 5 5 4 4 4 3 3 3 3 3 4 4 4 4 4 4 3 2 2 2 3 3 4 4 4 4 4 4 4 5 5 6 6 6 7 7 6 7 7 7 8 9 9 10 10 11 11 11 11 12 12 12 12
5 5 5 5 5 5 4 4 4 4 4 4 4 4 3 3 4 4 4 4 4 4 5 5 5 6 6 6 6 6 5 5 5 5 5 5 5 5 5 5 5 5 5 5 5 5 5 5 5 5 5 5 4 4 4 3 3 3 4 4 4 4 4 4 5 4 4 3 2 2 3 4 4 5 4 4 4 4 5 5 5 6 6 6 7 6 6 6 7 7 8 9 10 10 10 11 12 12 12 12 12 12 12
5 5 5 5 4 4 4 4 3 3 3 3 3 3 3 3 3 3 3 3 3 4 4 4 5 5 6 6 6 6 5 5 5 5 5 5 5 5 5 5 4 4 5 5 5 5 5 5 5 5 5 5 5 4 4 4 4 4 4 4 4 4 4 4 4 4 4 4 3 3 3 4 4 5 5 5 4 5 5 5 6 6 6 6 6 5 5 6 7 8 8 9 9 10 10 11 11 12 12 12 12 12 12
5 5 5 4 4 4 3 3 3 3 2 2 2 3 3 3 2 2 2 2 3 3 4 4 5 5 6 6 6 6 5 5 5 5 4 4 5 5 5 4 4 4 4 5 5 5 5 5 5 5 5 5 5 5 5 4 4 4 4 4 4 4 5 5 4 4 4 4 4 4 3 4 4 5 5 5 5 5 5 6 6 6 6 5 5 4 6 8 10 10 10 9 9 9 10 11 11 12 12 12 12 12 12
5 5 4 4 4 4 3 3 3 3 3 2 2 2 3 3 2 1 2 2 3 4 4 5 5 5 6 6 6 6 5 5 5 5 4 4 5 5 5 5 4 4 4 5 5 5 5 5 5 5 5 5 5 5 5 5 5 5 5 5 5 5 5 5 5 4 4 4 4 4 4 4 4 5 5 5 5 5 6 7 7 6 6 5 4 5 8 10 12 13 13 12 11 10 11 11 11 11 12 12 12 12 12
4 4 4 4 4 3 3 3 2 3 3 3 2 3 3 2 2 2 2 3 3 4 5 5 5 5 6 6 6 5 5 5 5 5 5 5 5 5 5 5 5 5 4 5 5 5 5 5 6 6 6 6 5 5 5 5 5 5 5 5 5 5 5 5 5 4 4 3 4 4 4 4 5 5 5 5 5 6 7 7 8 7 6 5 5 7 10 11 13 14 15 15 14 12 11 11 11 10 11 12 12 12 12
4 4 4 3 3 3 3 3 3 3 3 3 3 4 4 4 4 4 3 3 3 4 5 5 5 6 6 5 5 5 5 5 5 5 5 5 5 5 5 5 5 5 5 5 5 5 5 5 6 6 6 6 6 5 5 6 6 6 5 5 5 5 5 5 5 4 4 3 3 4 4 5 5 5 5 5 5 6 7 8 8 8 7 6 7 9 11 13 14 15 16 16 16 14 12 11 11 11 11 11 11 11 11
3 3 3 3 3 3 3 3 3 3 3 4 4 4 5 5 5 5 4 3 3 3 4 5 5 5 5 5 5 5 5 4 4 5 5 5 6 6 6 6 6 6 6 6 6 6 6 6 6 6 6 6 6 6 6 6 6 6 6 6 5 6 6 5 5 4 4 4 4 5 5 6 6 5 5 5 6 7 8 9 9 9 8 8 9 11 12 13 14 15 16 16 17 16 12 10 10 10 10 10 10 10 10
2 2 2 3 3 3 3 3 4 4 4 4 4 5 5 5 5 4 4 4 3 4 4 5 5 5 5 5 5 5 4 4 4 4 5 6 6 6 6 6 6 6 6 6 6 6 6 6 6 6 6 6 6 6 6 6 6 6 6 6 6 6 6 6 5 5 5 5 5 6 6 6 6 6 6 6 7 8 9 9 10 10 9 9 10 11 12 14 15 16 16 17 17 17 14 12 10 10 10 10 10 9 10
2 3 3 3 3 3 3 4 4 4 4 4 4 4 4 4 4 4 4 4 4 4 4 4 5 5 5 5 5 5 5 4 3 3 4 5 6 7 7 6 6 6 6 6 6 6 6 7 7 7 7 7 7 6 7 7 7 7 6 6 6 6 6 6 6 6 6 6 7 7 6 6 6 7 7 7 8 9 10 10 10 10 10 10 10 12 13 14 15 16 17 17 17 17 15 12 11 11 11 11 10 10 12
2 3 3 3 3 3 4 4 4 4 4 4 4 4 4 3 3 4 4 4 4 3 4 4 5 5 5 5 5 5 4 4 4 3 4 5 6 7 7 7 7 6 6 6 6 7 7 7 7 7 7 7 7 7 7 7 7 7 7 7 7 7 7 7 7 7 7 7 7 7 7 7 7 7 7 8 8 9 10 11 11 11 10 10 10 12 13 14 15 16 17 17 17 17 15 14 13 12 12 12 12 12 13
3 3 3 3 3 3 3 3 3 3 3 3 3 4 4 4 4 4 4 4 4 3 4 4 5 5 5 5 5 5 4 4 4 4 4 5 6 7 7 7 7 7 7 7 7 7 7 7 7 8 8 8 8 7 7 7 7 7 7 7 6 6 7 7 7 7 7 7 7 7 8 8 8 8 8 8 9 10 11 12 11 10 9 9 10 12 14 15 15 16 17 17 17 18 15 14 13 13 11 11 11 11 11
3 3 3 3 3 3 3 2 2 2 2 2 3 3 4 4 4 4 4 4 4 4 4 5 5 5 5 5 5 5 4 4 4 4 4 5 6 6 7 8 8 7 7 7 7 8 8 8 8 8 8 8 8 8 7 7 7 7 7 6 6 6 7 7 7 7 7 7 7 7 8 8 8 8 8 9 10 11 11 12 12 10 8 8 11 13 14 15 16 16 17 17 18 17 14 13 13 13 12 11 10 10 10
Wind_Direction
11 12 12 10 7 4 1 2 6 11 15 17 20 23 24 25 28 30 34 41 53 69 75 75 71 67 65 65 66 68 71 73 77 81 84 83 81 79 80 81 80 75 72 69 67 68 69 67 63 60 60 58 56 58 63 63 60 54 52 52 52 52 51 55 58 58 54 49 44 40 40 40 44 53 60 63 92 240 244 245 237 113 95 92 89 87 89 97 106 113 131 145 146 138 157 167 167 161 172 186 219 318 330
15 14 15 14 11 8 4 4 6 10 16 20 23 24 24 26 28 30 30 31 34 43 57 66 71 76 79 81 81 79 79 80 82 87 89 89 88 86 85 82 79 77 77 75 73 70 72 72 69 63 59 57 57 58 58 58 58 58 59 58 56 51 48 49 54 60 58 53 45 35 34 34 36 41 39 27 340 294 326 349 9 26 36 45 52 55 57 61 62 58 52 63 90 104 103 128 206 194 181 160 113 43 17
20 18 19 17 14 12 10 9 9 10 18 24 27 27 27 28 29 31 31 31 30 31 35 40 47 54 60 64 65 66 70 75 79 81 81 83 83 83 83 83 82 82 81 79 75 70 72 74 72 68 60 57 58 60 58 55 53 52 56 58 58 54 49 47 49 57 63 62 56 42 37 35 35 35 27 10 355 353 6 13 20 28 34 38 43 45 47 49 48 46 42 41 53 98 97 61 349 291 200 99 67 38 22
20 20 23 22 19 16 16 15 15 16 21 27 31 31 32 32 32 33 33 33 33 34 35 35 36 40 42 44 46 47 51 58 65 69 70 72 74 76 79 81 83 84 84 79 73 67 68 71 73 73 64 60 60 63 61 57 52 48 49 52 56 57 52 48 46 50 59 65 65 55 45 39 35 29 22 13 7 7 12 17 23 29 36 40 43 43 44 44 43 41 40 37 33 35 84 76 38 350 17 46 50 32 21
18 18 23 25 24 21 20 20 21 22 26 31 34 36 36 35 35 36 36 35 34 34 35 35 35 38 40 40 41 41 46 52 60 70 75 80 82 83 83 85 87 87 87 86 83 75 72 73 75 78 73 68 65 65 64 59 53 48 45 46 49 55 55 49 43 40 48 57 63 60 52 45 37 28 23 17 14 13 15 17 20 23 29 35 38 38 37 37 35 33 34 32 29 20 35 65 75 49 42 51 54 39 27
18 19 22 26 28 26 26 27 28 28 29 32 35 37 37 36 35 35 37 36 35 34 35 37 40 43 45 46 46 45 48 52 57 68 79 85 90 92 90 91 92 93 92 92 92 87 81 78 79 79 76 71 66 62 60 58 54 50 45 42 43 49 54 52 45 40 43 49 55 58 52 46 40 32 27 21 18 16 17 18 17 17 22 28 33 34 33 33 33 31 30 30 28 24 19 27 69 115 108 98 85 68 44
15 19 21 25 28 29 30 33 35 36 35 35 36 35 35 33 32 31 34 35 35 33 33 37 43 50 54 56 56 56 58 62 66 74 81 86 89 92 91 91 91 92 91 91 91 92 90 87 84 83 76 68 60 54 55 54 52 48 43 40 40 44 52 52 49 42 43 47 51 55 51 46 41 35 30 25 20 20 20 19 18 18 19 23 28 31 31 32 33 32 31 28 26 27 18 6 358 128 134 127 111 95 68
11 17 22 27 30 31 34 37 40 43 43 41 39 35 33 31 29 27 28 29 30 29 28 30 36 45 54 61 66 69 72 74 76 81 85 89 91 91 92 93 93 93 93 92 91 91 89 86 82 79 71 62 56 52 53 54 53 48 43 39 39 41 48 50 49 44 44 46 49 52 50 47 42 38 33 27 22 22 22 21 20 19 19 21 24 27 27 27 28 29 29 27 24 26 25 11 358 348 39 97 108 105 90
10 14 21 29 35 37 40 43 46 49 49 47 44 40 36 33 30 29 28 27 26 26 24 24 25 29 37 47 57 65 70 75 80 87 92 95 95 95 98 101 102 99 97 95 93 86 78 72 67 66 64 59 53 51 54 55 54 50 44 38 36 39 44 46 46 43 43 45 48 50 49 47 43 40 35 31 27 24 24 24 23 20 19 19 21 23 22 22 23 26 25 23 21 19 24 24 17 2 356 4 74 120 109
14 21 26 32 39 43 44 45 47 50 51 49 46 42 38 36 35 34 33 32 30 28 26 24 22 22 25 28 32 37 43 48 55 65 75 81 84 88 98 104 105 102 96 91 85 79 68 60 54 55 59 58 56 53 55 57 58 56 49 41 37 37 40 43 44 41 41 43 45 47 47 46 44 41 37 34 31 29 27 25 24 23 20 18 18 20 18 18 19 21 20 18 15 11 12 20 23 14 354 337 319 171 126
22 32 37 40 43 45 43 43 45 48 50 49 46 43 40 38 37 36 35 35 34 33 30 27 25 24 25 25 25 23 24 26 27 29 38 47 53 57 67 77 83 86 87 85 83 81 73 65 59 58 60 62 63 62 61 64 65 63 55 47 41 38 39 40 41 39 38 40 42 44 45 45 43 40 38 35 34 33 30 27 24 23 19 17 16 17 14 13 14 17 19 16 12 7 8 12 15 12 355 334 314 305 102
27 34 39 40 42 46 43 42 43 47 47 47 45 43 42 41 39 38 38 38 37 36 35 32 30 30 30 29 27 24 23 23 25 28 36 44 48 50 55 61 66 71 75 78 80 82 80 75 70 71 68 66 67 70 69 69 68 66 61 55 49 44 42 41 40 39 38 39 42 43 43 43 42 39 37 35 34 34 32 29 26 23 17 15 15 15 13 11 11 12 17 15 11 6 8 11 10 5 354 344 334 342 27
26 32 36 39 41 46 46 44 43 45 45 45 44 42 42 42 41 40 40 40 40 40 39 38 36 35 34 33 29 24 21 23 26 30 35 43 49 53 58 62 66 68 70 71 72 76 80 80 78 75 72 69 66 69 70 69 68 66 65 62 59 53 49 46 44 42 42 43 44 45 44 43 41 40 37 35 34 34 33 31 28 23 16 13 13 13 11 10 8 9 16 15 11 6 7 8 9 5 2 359 355 353 11
28 35 41 44 48 51 50 48 45 44 44 43 42 42 42 42 41 40 41 41 42 42 42 41 40 39 37 35 32 26 23 25 30 33 35 40 47 51 58 64 68 69 69 68 69 71 77 79 78 74 73 71 68 65 66 67 68 67 67 66 65 63 57 52 49 46 46 46 47 48 47 46 45 43 40 38 37 36 34 31 28 24 15 13 12 10 9 8 7 8 12 12 11 7 5 5 5 7 12 11 7 356 356
30 40 47 51 53 54 54 51 48 45 44 42 41 41 42 42 41 41 42 43 44 44 44 44 42 41 37 34 32 28 27 29 34 36 36 38 42 47 53 59 65 68 69 69 69 71 74 75 76 74 73 71 68 64 64 66 68 67 65 64 63 61 58 54 50 45 45 46 47 49 49 48 48 48 47 45 44 43 39 34 29 25 16 12 11 7 6 6 7 9 9 8 7 5 3 2 2 5 18 20 14 359 352
34 43 52 56 57 56 56 54 52 48 46 44 42 41 42 43 43 42 43 44 44 45 45 45 44 42 38 35 32 30 30 32 35 38 38 39 40 43 48 52 57 63 69 71 71 70 70 70 70 70 68 65 62 60 60 62 64 62 59 56 54 51 49 48 46 42 42 42 44 46 47 47 48 48 48 48 48 49 46 41 34 26 16 11 8 5 3 3 4 5 5 5 4 1 0 359 359 0 12 20 18 5 359
40 46 53 56 59 59 59 58 55 51 49 46 45 43 44 44 44 44 44 44 45 45 46 46 45 44 40 37 34 33 33 34 36 38 39 39 40 42 47 50 52 56 62 66 67 64 64 63 62 61 61 59 57 56 56 58 60 60 57 54 52 50 47 46 44 42 41 42 44 45 46 47 48 47 46 46 47 48 48 45 39 29 17 9 6 4 1 360 359 358 358 359 359 356 354 354 355 357 2 8 12 10 4
45 48 51 53 56 58 59 58 56 53 50 48 46 45 45 46 46 45 45 45 46 46 47 47 47 46 43 40 37 36 36 37 38 40 40 40 41 43 47 49 51 53 57 60 61 60 61 62 62 60 60 58 57 56 58 60 61 63 64 64 64 63 61 59 58 57 53 51 50 50 50 51 51 50 47 44 44 46 47 45 40 32 19 9 5 3 1 358 354 352 349 348 349 348 345 346 349 354 353 355 359 358 353
46 46 46 48 49 51 54 54 54 52 50 48 46 45 46 46 46 45 46 46 46 46 48 49 50 48 45 42 41 40 39 39 40 42 43 44 44 46 49 51 53 55 57 59 61 61 62 63 64 64 63 62 60 59 60 62 64 68 72 75 76 78 75 74 72 73 69 63 57 54 52 52 53 52 48 45 44 45 47 45 40 33 22 13 7 4 2 356 349 345 340 336 335 336 336 338 342 350 345 344 345 342 336
48 43 42 42 42 43 47 49 50 49 47 46 45 44 45 45 45 45 45 45 46 46 48 50 51 50 46 44 43 42 42 41 42 44 46 47 49 51 52 54 56 58 59 60 61 62 63 63 63 64 64 63 61 58 59 60 62 64 67 71 74 74 70 67 64 63 60 56 52 48 46 46 48 49 46 44 44 45 46 45 39 30 23 15 8 4 2 351 341 335 327 323 321 325 327 330 334 342 337 337 338 335 329
47 40 38 37 37 38 41 43 44 44 44 43 42 42 42 43 43 44 44 44 45 45 47 50 51 51 47 45 43 44 44 44 45 45 46 48 49 51 53 54 55 57 58 58 59 59 60 61 62 64 63 61 59 57 56 56 56 56 58 60 61 61 60 57 54 51 49 46 44 41 40 41 44 45 42 42 43 44 45 44 39 31 20 11 5 359 358 346 335 327 318 313 312 317 319 325 333 338 336 338 340 333 327
46 39 35 34 35 36 37 38 39 40 41 41 41 41 40 41 41 42 42 43 44 44 46 48 50 50 47 45 43 44 45 46 47 47 46 47 47 49 50 51 53 55 56 56 56 57 58 59 61 63 61 59 56 54 52 51 52 52 53 53 53 52 50 49 47 44 43 41 39 36 36 39 43 44 41 40 41 45 45 43 37 30 17 9 3 355 351 342 334 327 317 310 309 314 318 328 338 342 343 344 342 334 325
47 41 36 34 34 35 35 35 35 36 38 39 40 40 40 40 40 40 40 41 42 43 45 47 49 50 47 45 43 43 45 47 48 49 48 48 47 47 46 47 49 51 53 55 55 56 57 58 59 59 60 59 58 56 53 51 50 51 52 51 51 50 49 48 46 43 42 40 37 32 33 37 43 46 43 41 40 45 46 41 34 27 17 12 6 357 348 342 339 338 327 316 314 318 325 336 343 348 348 344 338 330 320
49 45 40 37 36 36 34 33 33 33 34 36 37 37 38 39 40 40 41 42 43 44 45 46 48 50 47 44 43 43 44 45 47 48 49 49 49 48 46 45 46 47 49 51 53 55 55 55 54 53 53 54 56 56 55 54 52 52 53 52 51 51 54 54 52 48 46 43 39 31 31 36 42 47 46 44 42 45 47 42 34 28 22 15 8 359 352 348 348 351 339 329 325 330 338 343 348 352 347 339 333 324 317
54 50 45 42 40 38 36 34 32 32 32 33 34 34 35 37 38 39 40 42 43 44 45 46 47 48 46 44 42 42 43 44 45 46 46 47 48 47 47 46 45 44 44 44 45 46 48 50 50 48 45 45 47 49 51 52 53 54 56 56 54 53 55 57 56 54 49 47 43 37 36 39 43 47 48 47 45 44 45 40 32 28 24 18 10 5 359 358 358 358 349 342 338 340 343 346 351 354 344 335 328 322 316
60 55 50 46 43 41 39 37 34 32 31 32 32 33 34 36 37 37 40 42 44 45 45 46 47 48 47 44 43 43 44 44 44 44 45 45 45 45 45 45 45 45 44 44 43 42 45 48 50 49 45 43 43 44 45 46 49 53 56 58 56 53 55 56 58 58 53 48 44 42 42 42 43 45 45 46 45 43 42 36 29 25 23 18 12 8 5 4 1 358 353 350 347 344 342 344 348 355 341 332 325 322 318
65 57 52 47 44 42 41 40 38 36 34 33 34 34 36 37 37 36 40 43 45 47 48 49 50 50 49 47 45 45 45 45 45 45 46 46 46 46 46 46 46 47 47 48 48 47 48 51 53 52 48 46 44 43 42 41 43 47 51 54 54 52 52 53 55 58 52 44 39 36 39 40 41 40 37 37 39 38 36 32 27 23 22 18 14 10 8 5 1 355 353 350 347 342 341 342 345 350 337 330 326 325 323
70 62 55 50 45 42 40 39 38 37 37 36 36 37 38 39 38 37 39 42 44 47 49 51 51 51 50 49 47 46 45 46 47 48 49 50 51 52 52 51 50 49 48 48 49 49 51 52 54 53 51 50 49 48 46 44 44 45 48 51 53 53 51 50 47 46 42 36 31 28 30 33 36 36 30 30 31 31 30 27 25 21 19 17 15 12 9 5 359 352 349 346 343 341 341 341 341 343 339 333 330 330 329
74 68 61 54 49 45 42 40 39 38 37 37 38 39 41 41 41 40 41 42 44 46 48 50 52 52 51 50 49 47 46 46 47 48 49 51 53 54 55 54 53 52 50 50 50 50 52 54 57 58 58 56 53 50 51 54 55 52 50 51 55 59 55 51 44 34 31 27 25 24 25 29 32 33 29 27 27 27 26 24 22 19 17 15 13 12 7 4 359 351 345 341 341 341 342 343 344 343 341 337 334 334 331
78 73 66 60 54 50 47 45 42 41 40 39 40 41 44 45 45 45 46 47 48 49 50 51 52 52 51 50 49 46 45 45 44 45 46 49 51 53 54 55 54 54 52 50 49 49 50 52 55 59 62 62 61 55 52 54 57 57 55 55 56 57 52 47 41 33 27 23 22 23 25 27 29 31 29 27 25 23 23 22 20 17 16 13 10 10 4 1 357 349 342 340 343 345 346 346 346 345 341 338 336 333 330
79 76 70 64 58 54 52 50 48 46 45 44 44 45 47 48 49 50 51 52 53 54 54 54 55 55 53 51 49 46 45 44 43 42 44 45 48 52 53 54 53 53 53 52 51 50 49 49 51 54 60 64 65 60 54 53 53 54 52 51 50 51 48 44 40 34 27 23 22 23 25 26 27 27 27 26 24 20 20 19 17 15 14 11 7 6 0 358 356 348 341 342 347 346 343 345 348 348 343 340 337 331 329
78 77 71 65 60 55 54 53 53 51 51 50 49 49 50 50 50 51 52 53 53 54 55 55 55 55 54 53 51 49 46 44 43 42 43 44 45 47 49 50 50 51 51 52 52 51 49 48 48 48 54 59 61 60 53 50 47 46 45 46 48 48 43 37 33 29 24 22 22 23 24 25 24 23 22 22 21 18 18 16 15 13 12 9 6 2 357 356 353 345 340 343 347 343 338 345 350 349 343 338 333 327 322
79 77 73 68 62 57 56 56 55 54 53 52 51 50 49 49 49 49 49 50 51 52 53 54 55 55 54 54 52 51 49 48 46 45 45 45 45 46 47 48 48 49 49 48 48 49 48 47 46 45 46 50 53 53 49 47 45 42 40 41 43 43 38 33 29 27 23 22 23 25 25 24 23 21 19 18 18 16 15 13 11 11 10 7 4 360 356 353 349 340 340 343 345 341 336 341 344 343 336 331 324 317 312
81 79 76 72 67 62 60 59 57 56 54 52 50 49 48 48 48 48 48 48 49 49 50 51 51 52 51 50 49 48 47 46 45 46 46 46 45 46 46 46 46 45 44 42 41 41 42 42 42 43 42 43 45 46 45 44 42 39 36 37 37 38 35 33 30 27 22 22 23 25 26 25 22 20 16 15 14 14 12 10 8 8 7 3 360 357 353 349 344 336 340 343 342 335 332 332 333 331 326 322 317 311 312
85 82 80 77 73 69 65 62 60 59 56 54 52 50 48 47 47 47 48 48 48 48 48 47 46 45 45 44 44 44 44 44 44 45 45 45 45 45 45 45 44 42 40 37 36 35 34 34 36 38 38 39 39 40 39 40 40 37 35 34 33 32 32 33 32 28 22 22 23 24 25 24 22 19 15 11 10 11 9 7 6 4 360 356 353 352 347 343 340 335 338 337 333 325 323 323 322 321 318 316 314 311 313
89 87 85 82 79 75 71 67 63 61 59 56 53 51 49 47 46 46 46 47 47 47 46 45 44 43 43 43 42 42 43 43 43 44 44 45 45 45 45 44 43 41 39 36 34 32 29 29 30 32 33 33 32 32 31 33 35 36 33 31 28 25 30 33 33 29 24 23 23 23 23 22 20 17 11 7 5 5 4 4 2 358 352 348 346 345 341 338 335 332 330 327 324 320 318 318 318 318 315 313 311 308 307
92 90 88 85 82 78 73 69 66 62 59 56 53 50 48 46 44 42 42 42 42 43 43 42 42 42 42 41 41 41 41 41 41 42 44 45 46 46 45 44 42 40 38 36 34 32 29 28 28 29 29 28 27 27 26 26 27 31 28 24 21 21 26 29 31 28 25 25 25 24 20 19 17 14 8 2 358 358 357 356 354 349 345 342 340 339 338 334 330 327 325 323 321 321 318 317 317 318 315 313 310 307 304
93 92 90 87 83 79 75 71 67 63 59 55 52 49 47 45 44 41 38 36 35 37 39 39 39 39 40 40 40 39 39 39 40 40 42 44 45 45 45 44 42 39 37 35 33 30 28 28 28 28 27 25 23 23 22 21 21 24 21 17 15 18 20 22 23 24 24 26 27 25 19 15 11 7 1 356 352 352 350 347 345 342 341 339 337 336 336 332 328 325 324 322 321 320 318 316 316 316 314 311 309 306 304
95 95 92 89 86 82 76 71 66 62 58 54 50 47 45 44 44 43 39 34 30 29 32 34 35 36 37 37 37 35 35 35 36 37 38 41 42 43 43 42 41 39 37 34 32 29 27 27 26 26 25 23 21 21 19 17 16 19 18 13 10 13 12 13 15 16 21 23 22 19 17 10 3 357 353 350 348 347 345 343 341 340 339 337 335 334 331 328 325 323 322 321 319 318 316 315 314 313 310 308 305 304 302
99 98 95 90 85 78 70 65 61 58 55 52 48 45 43 42 42 44 43 38 31 26 25 27 30 33 33 33 32 31 30 30 31 32 34 36 39 40 40 40 38 37 36 34 32 29 28 26 25 24 23 21 19 20 17 14 12 15 16 12 7 6 3 5 8 7 12 16 15 7 8 3 356 351 349 346 345 344 344 342 341 339 338 336 334 332 329 327 325 324 321 320 318 317 316 314 312 309 306 303 300 298 296
105 100 93 84 76 69 63 59 56 54 52 50 48 45 43 41 41 42 43 41 37 30 23 21 24 28 30 30 29 27 26 26 26 28 30 32 35 38 39 38 37 36 35 33 32 30 29 27 25 23 22 19 18 18 15 12 10 12 15 13 7 358 357 0 3 359 356 0 4 356 357 355 352 348 346 344 343 343 343 342 340 338 336 335 333 331 329 328 327 326 323 322 320 318 315 313 311 308 304 300 296 293 291
105 95 85 77 71 67 63 59 56 54 52 51 49 47 44 42 41 40 41 41 40 36 27 21 19 22 26 27 27 25 24 23 24 26 27 29 31 34 36 36 36 35 34 33 31 30 30 28 26 22 21 18 17 16 13 11 11 11 12 12 7 356 353 353 353 348 344 347 352 349 351 351 348 345 344 342 341 341 340 339 337 335 333 332 330 328 328 327 326 324 323 321 319 316 314 311 309 306 303 300 297 294 291
97 88 82 78 74 71 67 63 59 56 53 51 49 46 43 41 40 40 40 40 40 40 35 27 20 17 20 23 25 25 22 21 21 23 25 26 28 29 31 33 33 33 32 31 30 29 29 27 25 21 19 17 16 13 11 11 11 10 5 4 2 355 350 345 341 339 338 340 342 342 344 344 341 337 337 337 336 336 335 333 332 330 329 327 325 324 323 322 320 318 317 316 314 312 309 306 303 301 298 296 294 292 290
93 88 85 81 77 73 70 67 63 60 56 53 49 45 40 38 38 39 39 39 38 37 38 35 28 18 16 17 20 21 20 19 19 20 21 23 24 25 27 28 29 30 30 29 28 27 26 25 23 19 17 15 14 13 10 9 9 7 1 357 355 354 348 341 334 329 329 332 334 334 332 331 329 324 325 327 328 327 326 325 324 323 322 320 319 318 315 313 311 312 312 311 308 304 300 297 294 291 289 286 285 283 283
96 92 86 81 77 74 72 70 67 65 61 57 53 49 40 34 33 37 36 34 32 30 33 34 31 24 16 13 13 16 17 16 16 17 18 20 22 21 22 23 24 24 26 27 26 25 22 21 20 17 15 12 11 10 8 6 4 3 358 355 351 350 345 339 331 321 324 325 325 320 318 316 314 309 312 314 315 316 317 318 318 317 315 312 310 308 305 304 304 307 306 303 299 295 290 287 285 282 279 275 273 271 270
98 91 85 80 77 74 73 72 71 70 67 64 60 54 42 32 28 33 34 30 26 22 25 26 26 23 16 11 8 11 12 11 11 12 14 16 18 18 18 18 18 19 21 23 24 23 20 18 16 14 12 10 9 7 6 4 1 357 354 351 348 344 340 334 327 317 318 316 314 312 307 303 299 295 299 303 306 310 313 314 313 311 307 304 301 298 295 296 298 299 296 293 290 287 284 281 279 277 274 271 269 266 264
99 93 89 85 82 78 75 74 73 72 72 70 67 60 45 31 24 27 28 24 20 18 20 20 18 16 14 10 6 4 4 4 4 6 9 12 14 15 14 13 12 13 15 18 20 20 17 15 13 11 10 8 7 6 5 2 358 351 348 344 341 339 335 332 327 320 316 315 308 297 290 289 290 292 296 300 304 309 311 311 309 305 300 296 292 288 288 291 294 294 293 291 289 287 285 283 280 278 276 274 272 270 267
104 100 97 92 86 79 76 74 74 75 76 79 79 74 59 38 24 20 20 15 10 11 16 16 13 11 12 10 5 359 358 358 359 0 3 7 10 12 11 9 7 10 9 12 15 16 13 11 10 8 7 6 4 4 2 359 355 349 342 338 336 336 335 333 330 323 321 315 299 277 276 281 287 291 295 299 305 310 312 311 307 301 294 288 284 281 285 292 298 299 298 296 294 291 289 286 283 280 277 275 274 273 271
104 101 98 94 89 83 79 75 72 73 75 80 86 88 82 62 36 17 12 5 1 4 10 12 11 10 11 8 2 355 356 357 357 357 0 4 8 9 6 4 3 7 6 7 10 11 5 5 7 5 3 2 0 0 358 356 352 344 339 335 333 332 331 329 326 321 317 310 298 278 274 279 285 291 296 303 309 314 314 310 304 296 289 285 284 286 296 304 307 305 303 300 297 294 290 286 283 281 280 278 278 278 276
102 101 99 96 92 87 83 80 78 79 73 70 73 82 84 73 50 15 4 358 356 0 3 5 6 9 10 6 0 354 355 356 357 356 359 2 5 6 0 358 359 5 4 5 7 8 360 0 3 3 0 358 356 355 354 351 348 341 336 332 329 327 327 324 320 315 310 306 301 288 283 286 292 297 303 308 313 315 313 308 302 295 291 289 289 293 300 303 304 304 303 301 299 295 291 288 285 284 283 282 282 281 280
106 107 105 101 95 87 84 82 82 83 76 68 61 61 71 72 61 15 6 1 0 2 359 359 2 4 6 3 358 354 354 356 356 357 359 1 2 2 356 353 354 2 2 1 2 7 357 356 359 1 358 355 352 350 350 349 345 339 334 330 327 327 326 323 318 311 309 306 300 291 296 300 304 303 309 314 317 317 314 310 305 300 297 294 294 297 303 305 306 306 305 303 299 296 294 292 290 289 287 287 285 284 282
120 119 115 109 103 96 91 87 85 84 80 71 58 47 50 53 48 23 23 14 4 358 352 353 355 358 360 357 354 350 352 355 357 359 0 0 0 359 352 349 351 359 0 357 356 359 354 354 357 359 355 351 349 348 348 346 343 338 334 330 328 329 327 322 315 310 313 305 295 292 303 310 311 311 317 322 323 322 318 314 309 304 302 301 303 307 311 312 311 310 307 305 303 300 299 298 296 294 292 290 288 286 284
134 133 128 120 111 101 95 90 85 84 79 68 54 40 28 21 16 11 15 13 3 352 346 347 349 350 351 349 346 344 350 356 0 2 0 0 360 357 350 349 352 358 356 352 349 350 350 353 355 356 352 349 347 346 346 344 341 337 334 332 331 331 327 322 319 320 320 313 307 310 317 317 316 317 324 327 327 325 319 314 310 307 307 308 311 315 316 316 314 311 309 308 307 306 303 300 297 294 293 291 288 286 283
147 146 134 118 102 92 90 86 80 74 67 57 45 36 24 14 6 359 356 354 352 348 344 343 344 344 340 340 340 343 349 357 4 5 3 2 0 355 351 352 356 0 354 348 345 345 347 350 352 353 350 347 345 345 346 343 340 336 334 333 333 332 329 328 329 332 329 325 323 322 321 319 319 326 333 333 329 325 318 313 310 310 311 313 317 320 319 317 314 311 311 310 310 310 306 302 298 295 292 289 286 284 282
159 142 116 99 90 84 80 74 67 59 51 44 36 30 21 10 358 346 337 336 341 348 341 338 336 336 333 336 340 342 348 359 11 13 8 4 0 355 353 355 359 1 353 347 344 344 343 345 348 350 348 346 344 345 345 343 339 335 333 334 334 334 333 333 333 331 330 328 325 321 320 321 326 337 340 336 330 324 318 314 314 316 317 319 321 324 321 317 315 313 313 313 312 311 307 302 297 292 289 287 284 282 280
152 117 101 91 86 79 70 63 57 51 42 33 26 18 14 2 348 335 330 332 338 343 337 333 331 330 334 339 342 344 348 359 13 22 17 10 3 355 353 356 359 358 351 347 344 342 341 343 346 348 347 345 345 345 344 342 339 334 334 336 337 337 335 333 330 327 330 327 324 322 324 329 335 342 342 337 330 323 319 318 318 320 320 322 324 325 320 317 316 315 315 314 313 311 307 302 296 291 288 285 282 280 280
137 112 102 96 90 83 71 60 52 44 36 26 15 2 357 347 334 327 325 326 329 334 330 327 327 330 338 342 344 347 350 358 10 21 25 18 8 356 352 353 355 354 350 346 344 342 342 344 346 348 346 345 344 345 344 341 338 333 335 338 340 338 334 331 329 331 332 329 326 328 331 336 340 344 341 336 330 324 322 322 322 323 323 324 324 323 320 318 318 317 316 314 312 311 306 300 294 288 285 283 281 281 283
127 107 98 96 94 89 78 66 53 42 30 18 3 348 337 331 325 323 319 318 319 323 324 326 329 335 342 344 345 348 355 0 5 11 24 22 13 358 352 351 351 350 348 346 344 344 344 346 347 347 346 345 344 344 342 339 336 332 336 339 338 336 333 331 331 333 332 331 330 333 337 340 342 342 340 335 330 326 325 325 324 324 324 324 323 321 321 321 320 319 316 314 312 311 306 299 292 288 285 284 284 285 289
111 96 97 101 103 98 90 78 63 50 29 8 347 333 324 320 320 324 322 321 320 322 327 331 334 338 343 345 347 350 358 2 2 2 15 20 15 2 354 350 348 347 346 345 345 345 346 347 347 347 345 344 343 342 340 336 333 333 335 337 338 340 335 332 331 332 331 332 333 337 340 342 341 340 339 336 333 330 327 326 325 324 323 323 323 324 324 323 322 319 317 315 314 311 305 298 293 292 291 290 291 294 297